User: anonymous   Login
Location: Waldport
(44.4270°N, 124.0680°W)
Time: 04:30:01
(UTC-07:00)
Language:

Cosmos 1570 Rocket - Orbit

View from above orbital plane
View from above orbital plane
View from above satellite
View from above satellite

Ground track
Ground track

The orbit data is extracted from the following two-line orbital elements,

1 15032U 84056B   16237.45364580 -.00000054  00000-0 -99258-5 0  9997
2 15032  74.0684 258.6379 0016510 138.9586 221.2812 14.34668936684360
Epoch (UTC): 24 August 2016 10:53:14
Eccentricity: 0.0016510
inclination: 74.0684°
perigee height: 764 km
apogee height: 788 km
right ascension of ascending node: 258.6379°
argument of perigee: 138.9586°
revolutions per day: 14.34668936
mean anomaly at epoch: 221.2812°
orbit number at epoch: 68436

The dashed part of the orbit path shows where the satellite is in the earth's shadow,  

DLR